Theta_e
325 325 324 325 326 330 332 334 334 334 335 337 335 334 334 332 337 348 350 351 354 352 351 352 351 352 352 351 352 352 353 354 353 353 351 348 347 347 344 343 344 346 346 348 350 351 351 351 351 349 348 347 347 348 347 345 345 344 344 344 339 341 341 338 337 340 345 347 347 349 347 347 349 349 349 350 350 350 350 350 347 348 348 345 344 344
325 324 324 326 326 327 329 330 332 332 332 333 331 330 332 333 338 348 350 349 353 352 350 353 352 351 352 351 352 352 352 353 353 352 352 349 348 347 343 343 344 345 346 348 350 350 351 351 351 350 348 347 348 348 346 346 346 345 345 345 343 342 341 341 340 341 346 348 348 349 347 347 348 348 349 349 350 351 350 345 344 349 349 345 345 343
322 322 324 327 325 325 326 326 327 328 328 328 328 328 329 333 338 345 351 350 351 351 350 353 352 351 353 351 351 352 352 351 352 352 352 350 349 348 344 343 344 345 346 348 349 350 350 351 351 351 349 348 347 348 347 347 347 346 347 345 344 344 342 343 341 339 345 347 347 349 348 347 347 348 350 350 350 351 351 345 343 347 345 345 347 346
319 321 324 325 325 325 325 325 325 325 326 326 328 326 326 333 333 334 345 351 350 351 351 352 351 351 353 351 350 351 351 351 351 352 352 350 349 348 345 343 344 345 347 348 348 349 350 351 352 351 351 349 347 347 348 349 348 346 346 343 341 343 342 343 340 338 345 346 345 347 348 347 347 348 349 349 348 348 350 349 346 344 342 347 351 350
320 321 324 323 323 325 325 326 326 325 325 326 328 327 326 332 332 333 344 350 350 351 353 351 347 349 353 352 352 352 349 348 349 350 351 351 350 348 345 343 343 345 346 348 347 348 349 350 351 352 351 350 348 347 347 349 349 348 346 341 339 341 341 341 339 339 344 343 342 344 344 344 344 345 346 347 347 347 347 349 349 346 341 345 350 349
320 322 322 321 321 323 323 325 325 325 323 323 327 329 328 331 335 341 347 348 343 342 351 351 342 344 352 353 353 352 349 348 349 350 350 351 351 349 346 343 343 345 346 347 347 347 349 350 351 352 352 350 349 348 347 348 349 349 348 343 339 340 342 342 339 339 343 343 342 343 343 344 345 346 347 347 348 348 348 350 351 348 342 342 347 348
320 321 321 320 320 321 321 321 323 326 321 320 327 332 332 334 338 343 347 345 338 339 350 351 340 340 347 352 353 352 350 350 350 351 351 352 352 349 347 344 342 344 345 346 346 346 348 349 350 352 353 351 349 348 347 347 348 349 350 346 341 341 342 344 341 338 342 344 344 345 346 347 348 348 349 349 349 349 350 352 352 349 344 340 346 349
320 320 320 319 320 320 320 319 321 324 320 322 331 335 333 336 341 343 344 342 341 343 348 351 346 339 341 349 353 352 351 352 350 351 351 351 351 350 348 346 343 343 344 345 345 346 346 348 350 351 352 351 350 348 347 347 347 349 350 347 343 342 343 344 343 339 341 344 345 345 347 349 349 348 349 349 350 351 351 352 352 352 349 341 342 347
321 320 320 320 320 319 320 320 321 322 320 326 336 336 334 338 342 343 341 340 344 343 337 343 349 341 338 347 352 352 353 353 351 349 351 351 351 351 348 346 344 342 343 344 344 345 346 347 349 349 351 351 349 348 348 348 347 349 349 345 342 343 343 344 344 342 342 344 344 344 347 349 349 349 350 349 350 350 350 350 349 349 351 346 341 342
322 322 322 322 320 320 320 321 322 320 321 330 335 335 336 338 341 342 338 338 343 340 332 338 347 339 336 344 350 351 353 354 353 348 350 352 351 351 349 346 344 342 343 344 343 345 345 346 347 348 350 350 349 349 348 348 348 349 348 344 341 342 343 343 343 343 343 343 343 343 346 349 349 350 351 350 350 349 348 349 348 345 346 349 348 346
323 323 323 322 322 322 323 324 324 321 324 333 333 332 334 336 341 340 336 338 337 334 334 341 347 341 337 341 348 351 352 354 355 350 347 352 352 351 350 346 344 342 343 344 343 344 345 345 346 347 349 350 350 350 349 348 348 350 349 345 340 341 341 341 341 342 343 344 344 343 344 347 349 350 350 350 349 348 347 347 350 348 346 347 350 351
323 322 322 323 323 323 326 327 326 324 328 333 331 330 329 331 336 334 334 338 332 329 337 345 349 345 337 340 347 351 350 352 356 354 348 350 352 351 350 347 344 343 343 344 343 343 344 345 345 346 348 349 351 350 349 349 349 350 351 346 340 339 340 338 340 341 342 344 345 344 345 347 349 349 350 350 349 350 350 349 350 349 346 345 346 350
323 323 323 325 325 325 326 326 327 329 330 330 329 328 324 325 330 329 330 335 328 329 341 344 345 344 338 340 347 349 349 350 354 355 349 349 352 351 351 349 345 343 343 344 344 343 343 344 345 346 348 350 352 352 350 349 350 350 352 349 341 338 338 338 340 342 342 344 344 343 345 347 347 347 349 350 351 351 352 353 353 350 347 346 345 348
320 324 327 328 328 329 327 325 324 326 328 328 327 324 321 322 325 324 326 329 326 331 342 345 344 339 335 339 345 345 347 350 352 352 349 349 351 351 352 350 346 343 342 343 344 344 344 345 346 346 348 351 352 352 351 350 350 351 352 351 344 338 337 338 341 343 343 343 343 342 344 346 347 347 348 350 353 354 353 353 353 353 352 350 349 350
317 320 325 326 328 331 330 328 327 328 328 327 327 326 322 321 322 324 326 327 325 330 339 344 341 334 332 342 347 344 346 350 352 351 349 348 349 351 352 350 347 343 342 343 343 345 345 345 347 346 348 351 351 351 351 350 351 352 352 351 346 340 338 338 340 342 343 344 344 343 342 344 347 348 350 351 351 352 353 353 353 353 353 353 353 353
316 317 323 324 326 329 331 332 334 332 329 328 330 328 323 321 324 326 327 327 328 330 334 337 336 334 338 347 348 345 346 351 353 352 350 349 348 348 350 350 347 344 342 343 344 345 346 346 347 347 348 350 350 350 351 351 351 352 353 351 347 344 341 339 339 340 342 344 346 345 341 342 344 346 349 350 349 348 351 353 353 352 351 352 354 354
316 317 324 326 325 329 330 334 335 330 328 331 331 326 326 329 329 329 332 332 329 329 330 331 332 334 339 344 345 345 345 348 352 351 351 350 348 347 350 351 348 344 342 343 344 345 346 347 347 347 348 348 349 349 350 352 352 351 352 351 348 346 344 342 339 338 340 342 344 343 341 342 344 345 349 351 350 351 352 352 351 352 353 352 353 353
319 318 323 326 328 331 330 332 336 334 331 333 330 328 331 334 332 333 336 335 329 327 329 328 329 330 332 338 347 348 345 345 348 350 352 351 349 348 348 351 348 344 343 344 345 347 347 348 348 348 349 349 348 349 350 350 349 347 347 350 350 347 346 344 342 341 341 342 342 343 342 343 344 347 351 352 353 353 354 352 350 351 353 353 353 353
321 317 321 325 328 332 331 330 334 335 333 334 334 334 332 330 330 331 332 331 327 327 328 327 328 329 328 335 346 349 347 346 345 347 350 351 350 349 347 349 348 345 344 345 347 348 348 348 349 348 349 349 349 349 348 346 346 345 345 349 351 350 348 348 348 348 348 347 347 348 347 345 345 348 351 353 354 354 353 353 352 352 353 353 354 353
324 318 318 323 326 329 329 328 328 331 334 334 333 334 332 331 331 330 330 329 326 326 328 328 327 327 331 340 348 349 350 349 346 347 348 350 351 349 347 348 348 347 346 347 346 346 345 347 349 348 347 346 346 347 348 346 347 349 349 349 351 351 351 351 352 352 351 351 351 352 350 347 344 346 350 352 353 353 353 353 353 353 353 353 354 354
325 321 318 321 324 324 325 326 326 330 334 332 329 331 332 331 330 330 330 328 326 325 326 327 325 326 337 349 351 351 351 348 348 348 347 349 351 349 348 347 349 350 348 346 345 344 343 345 347 348 346 344 343 344 347 347 347 350 352 351 349 350 352 352 352 353 353 353 353 352 352 350 346 346 349 351 351 351 353 353 353 353 354 354 354 354
323 322 319 319 320 320 323 327 328 330 331 330 330 332 333 332 329 328 327 326 325 324 323 326 326 328 340 350 348 349 349 347 349 349 348 349 349 349 349 348 349 351 349 345 344 343 345 346 347 349 348 346 346 347 346 346 347 349 352 351 349 350 351 352 352 353 353 353 353 352 351 351 350 349 350 352 352 351 352 353 353 353 353 354 355 353
325 323 320 318 320 322 325 328 330 331 331 331 333 336 334 332 328 325 324 325 325 325 324 327 328 333 345 350 347 349 349 349 351 349 348 348 347 348 349 348 349 351 348 345 343 344 348 348 347 349 349 347 348 347 345 345 346 346 347 349 348 347 348 349 353 353 350 350 351 350 349 350 352 351 351 352 353 352 352 352 353 353 352 353 354 354
325 324 320 318 321 325 326 328 330 331 332 332 334 335 333 333 331 328 327 328 326 324 325 326 327 334 346 351 350 350 350 350 350 349 349 349 348 349 350 349 350 351 349 346 344 346 348 349 349 349 348 346 345 344 342 342 342 341 341 343 343 343 343 344 348 349 346 346 348 349 349 350 351 352 352 352 353 353 352 352 353 353 353 353 353 353
322 323 321 318 318 321 322 325 326 327 330 332 333 334 334 335 335 334 334 333 327 323 325 325 325 334 347 350 349 350 349 350 351 349 350 350 350 350 350 348 349 350 350 349 349 348 348 350 350 349 346 343 341 341 341 340 340 339 339 340 340 341 342 342 343 343 343 345 347 350 352 351 350 352 353 353 353 353 353 351 352 353 353 353 352 353
322 323 322 319 317 318 320 323 324 325 328 331 332 333 334 333 334 335 334 331 326 325 328 327 327 336 347 349 348 348 348 349 351 351 351 351 350 350 350 350 349 349 350 351 352 351 351 351 351 349 346 342 340 340 341 340 339 339 339 339 339 340 341 342 342 342 343 345 346 348 350 351 352 353 353 352 351 352 353 352 351 352 353 353 353 353
324 323 323 322 320 318 321 326 329 329 328 328 330 332 332 333 334 333 329 327 328 330 331 333 336 339 344 349 349 348 348 349 351 351 350 351 350 348 347 349 350 349 351 353 353 353 352 350 351 351 348 345 343 342 341 340 339 339 339 339 339 340 341 341 342 342 342 344 346 345 345 349 353 354 354 353 350 347 350 352 352 352 352 353 353 353
324 322 323 325 323 322 325 330 332 331 329 328 328 330 332 333 333 331 327 330 335 332 329 338 344 341 343 351 350 348 349 349 351 351 349 350 350 348 346 346 349 350 352 354 355 354 353 349 348 349 347 345 345 344 343 342 341 341 340 339 339 340 340 341 341 342 342 344 346 345 342 345 351 353 353 352 348 343 345 349 352 353 353 353 353 352
322 320 321 323 322 323 326 328 330 332 332 331 330 330 332 332 331 331 331 335 338 333 331 340 345 342 346 350 348 348 350 349 351 352 351 350 349 348 348 348 349 351 352 353 354 354 353 350 347 346 345 344 343 343 344 345 343 342 340 340 340 341 341 342 342 342 342 343 345 346 346 346 349 350 350 349 347 345 342 344 349 352 353 353 353 352
322 320 323 322 320 321 324 326 328 330 330 330 330 330 331 332 332 332 333 336 338 337 338 342 344 345 347 347 348 349 350 350 351 350 349 349 349 349 349 349 350 350 351 352 354 355 355 353 350 347 345 345 343 342 343 344 343 341 341 341 341 341 342 343 343 343 343 343 344 345 347 348 348 349 349 349 349 348 344 342 346 352 353 352 353 353
321 321 325 324 320 320 322 324 326 326 326 326 327 328 329 330 331 331 332 335 335 337 341 341 342 347 348 347 348 349 349 350 350 347 345 347 349 349 349 348 347 348 350 351 352 354 354 354 353 351 349 347 346 344 344 344 343 342 342 342 342 343 344 344 345 345 344 343 344 344 346 348 349 350 350 350 350 351 349 346 347 351 352 350 350 350
321 321 325 324 319 318 321 323 323 325 326 323 323 327 327 327 329 330 334 336 335 335 338 338 340 345 348 348 348 349 349 349 348 347 345 345 347 349 350 348 347 346 348 349 350 352 353 353 353 353 352 350 349 347 345 344 342 341 342 342 342 344 347 348 346 345 344 344 344 344 346 348 350 351 352 351 350 350 350 349 348 348 346 346 349 349
322 321 322 322 319 318 320 322 323 323 322 320 323 328 329 329 331 332 332 335 338 338 337 336 340 346 348 347 347 348 348 347 346 345 345 346 348 348 348 348 348 347 347 348 349 351 351 352 352 352 353 352 352 351 350 347 345 343 341 341 341 343 346 349 346 343 344 345 344 345 347 348 349 349 349 350 349 347 347 348 349 348 346 348 352 351
323 322 322 323 319 318 321 323 322 320 319 322 329 333 333 333 336 335 333 335 340 342 341 340 343 346 346 346 346 346 346 344 343 343 344 346 345 344 344 345 346 347 348 348 348 350 350 351 351 351 352 353 352 352 352 351 350 348 346 344 345 344 345 347 346 345 346 347 347 348 349 349 348 347 345 346 348 348 346 346 347 348 348 350 351 350
323 322 323 323 320 318 321 322 320 318 320 326 332 333 335 336 337 337 337 337 338 341 343 344 345 346 346 345 345 345 344 342 342 342 343 343 343 343 343 342 343 346 347 346 345 346 347 348 349 349 350 351 351 351 351 352 352 352 350 349 349 347 345 347 347 347 349 350 350 350 350 349 349 348 346 345 345 347 348 347 346 346 348 348 347 347
323 323 322 322 321 320 319 318 319 320 323 326 329 331 334 335 335 335 335 334 335 339 342 344 345 347 347 344 343 343 343 343 343 342 341 341 342 342 342 341 343 346 346 346 344 344 344 346 347 348 348 349 350 349 350 350 350 351 351 350 350 349 348 348 348 348 348 350 350 350 349 349 349 350 350 348 345 344 347 348 348 347 347 348 348 347
322 323 322 321 321 321 318 317 319 321 321 324 327 329 331 331 333 334 333 332 334 338 341 344 345 346 346 344 344 343 343 344 345 342 340 340 340 341 340 340 343 346 346 346 346 345 345 346 346 347 347 347 348 348 348 349 349 350 350 350 349 350 349 349 348 349 349 349 348 348 347 346 346 348 350 348 345 345 346 347 347 347 347 348 349 349
323 325 324 321 321 322 319 318 319 319 319 323 327 328 330 331 332 334 332 331 333 336 341 343 344 344 344 344 344 343 343 345 345 342 340 339 339 339 339 338 342 346 346 345 346 345 345 346 346 347 347 347 347 347 347 348 348 348 348 348 349 349 349 349 350 350 350 349 348 347 347 346 347 348 348 346 345 345 347 348 349 348 349 350 350 351
323 325 325 321 320 321 319 318 319 318 320 325 328 330 331 332 333 334 330 329 333 338 340 343 344 344 343 343 344 344 344 345 344 342 340 339 338 339 338 338 341 345 345 345 345 344 344 345 345 345 346 346 346 346 346 347 347 347 347 347 347 347 347 348 349 349 349 349 349 348 349 349 348 348 346 345 345 346 347 349 349 349 349 349 349 350
323 323 323 320 318 319 319 318 318 318 323 329 332 330 331 333 334 331 326 327 334 339 340 343 345 344 343 343 344 345 345 345 343 341 339 338 337 337 338 338 340 344 345 344 344 343 343 344 344 344 344 344 344 344 344 345 346 346 346 346 345 345 345 345 346 346 346 346 347 347 348 349 348 348 346 346 347 347 347 348 349 349 348 348 347 347
322 322 321 319 318 318 318 318 318 319 326 332 332 330 332 333 330 325 325 330 337 339 340 341 343 343 343 343 343 343 344 344 342 339 338 337 336 336 337 337 338 342 344 343 342 342 342 342 342 342 342 342 342 342 342 343 344 343 343 343 343 342 341 341 342 342 342 343 345 346 346 346 347 347 346 346 346 346 345 346 346 346 345 345 345 345
321 321 321 320 319 318 319 320 318 320 327 332 332 332 333 329 325 326 331 337 339 339 340 341 341 342 342 342 341 341 342 341 339 337 336 334 332 333 335 336 336 338 340 340 340 341 341 341 341 340 340 339 339 339 340 341 341 340 339 340 340 339 339 340 340 341 342 343 343 343 344 344 344 345 344 344 344 344 343 343 343 344 343 343 343 343
321 320 319 320 321 320 320 320 318 320 327 332 332 332 332 329 329 333 337 339 339 340 340 340 341 341 341 341 341 341 340 339 337 335 333 330 330 333 334 335 334 335 336 337 337 338 338 338 338 338 338 338 338 338 339 339 338 337 337 336 336 336 336 336 337 338 339 340 341 341 341 340 340 341 341 341 341 342 340 339 340 341 342 341 341 340
322 320 318 320 322 320 318 320 323 326 330 332 331 332 333 333 335 336 336 337 339 339 339 340 341 341 340 340 341 339 338 337 334 332 329 327 328 331 332 333 333 332 332 333 333 334 335 336 336 336 336 336 335 335 335 336 336 335 334 334 334 335 335 335 335 334 333 333 334 335 335 335 336 336 337 337 338 338 338 337 338 338 339 338 337 337
324 327 324 323 324 323 323 326 330 332 333 332 332 334 335 335 335 335 335 337 339 339 340 341 341 340 339 340 340 339 337 335 332 330 328 326 328 330 330 330 330 330 329 329 328 328 328 328 329 329 329 330 330 331 331 331 330 329 328 327 327 327 328 328 328 327 325 323 324 324 325 326 328 329 330 331 333 334 334 334 334 335 336 335 334 335
328 330 327 325 325 326 328 331 332 332 333 333 332 334 335 335 335 335 336 337 338 338 339 340 340 340 338 337 338 337 336 333 330 328 326 325 326 328 327 327 328 328 326 325 323 322 321 321 321 322 321 320 321 322 321 320 319 319 319 319 319 319 318 318 318 319 318 318 317 317 318 319 320 320 321 321 322 325 326 326 326 328 330 330 330 332
327 327 325 326 326 324 326 332 333 333 335 336 334 334 334 334 335 336 336 337 337 337 338 339 340 339 338 337 336 335 333 331 329 327 326 326 326 326 326 327 328 327 326 325 325 323 322 321 322 322 320 318 319 319 318 318 319 320 320 321 320 318 316 316 316 316 315 314 314 314 314 316 316 317 317 317 316 316 318 318 317 320 325 328 330 332
327 325 323 324 325 325 329 334 335 334 334 335 335 335 335 334 335 335 335 335 336 336 337 338 338 338 338 338 336 333 331 329 328 327 327 327 327 326 325 325 326 327 328 327 325 324 322 320 320 319 318 317 319 321 321 321 322 323 323 322 321 318 317 317 317 316 314 312 311 311 311 311 311 312 312 313 313 312 313 313 312 312 315 318 321 324
328 325 324 325 326 327 330 333 334 334 335 335 335 335 335 335 336 336 335 335 336 336 336 336 337 338 337 336 334 332 329 327 326 326 326 327 328 328 327 324 323 324 326 326 324 323 322 320 318 318 317 318 319 320 321 322 323 323 322 321 319 318 317 317 318 318 318 316 314 312 312 311 311 311 310 311 311 310 310 310 310 310 310 310 311 313
326 324 326 326 324 324 327 331 334 334 334 334 334 334 334 335 335 336 335 335 336 336 335 335 336 336 335 334 330 327 324 323 322 322 321 321 322 324 326 325 322 321 322 322 322 321 320 317 314 313 314 316 317 317 318 320 322 323 323 322 319 317 317 318 318 318 318 318 316 314 313 312 312 313 312 312 312 311 312 311 311 311 311 310 311 311
325 326 326 325 323 324 327 332 334 333 332 333 332 332 333 333 334 335 335 335 335 335 335 334 335 334 333 330 325 319 317 319 319 317 315 315 317 320 322 321 320 319 318 318 317 317 318 318 318 318 317 317 317 316 316 317 317 318 318 319 318 317 319 321 322 320 319 318 316 315 314 313 313 313 313 313 312 312 312 312 311 311 311 311 311 311
Wind_Speed
6 7 7 6 4 3 4 4 5 3 4 5 6 4 4 3 1 4 3 3 2 4 3 5 7 7 8 8 10 13 16 17 17 16 16 16 16 16 16 15 15 14 13 12 12 12 12 12 12 13 14 14 14 14 15 16 16 17 17 17 19 18 18 19 18 17 15 13 12 12 11 10 9 9 8 8 8 7 8 9 8 7 6 6 7 7
6 8 6 4 1 2 3 4 6 7 7 7 6 5 3 2 1 4 3 3 2 4 1 3 6 7 8 8 10 13 14 16 18 17 17 18 17 16 16 16 15 15 14 13 13 13 12 13 13 14 14 15 15 15 16 16 16 17 16 17 18 18 18 18 18 17 14 13 12 11 10 9 9 8 8 7 7 7 7 9 9 7 6 7 7 7
7 8 5 4 3 2 3 3 5 7 8 7 5 5 3 1 0 2 2 3 2 4 0 3 5 5 6 7 9 11 13 16 18 17 17 18 17 17 17 17 17 16 15 14 14 14 13 13 14 14 15 16 16 16 16 16 16 17 17 17 18 17 18 18 18 18 15 13 12 11 9 8 7 7 7 7 8 7 6 7 8 7 7 7 6 6
6 5 5 6 4 5 6 5 7 7 8 8 5 5 4 1 2 1 2 3 2 4 2 0 3 3 4 6 7 10 13 11 11 14 15 16 17 17 17 17 18 17 16 15 14 14 14 14 15 15 15 16 16 17 17 16 17 17 18 19 19 18 18 18 18 18 15 14 14 12 11 10 9 8 8 9 9 8 7 6 6 6 7 7 5 4
4 2 4 5 5 7 8 7 8 8 7 9 8 7 6 4 4 3 1 1 3 5 4 4 3 2 5 7 6 8 8 5 7 13 14 15 16 16 17 18 19 18 16 16 15 15 15 15 16 16 16 17 17 17 18 18 17 17 18 20 19 18 18 17 18 17 15 14 14 12 11 11 11 9 9 8 8 8 7 6 5 5 6 6 5 5
5 4 5 6 7 8 9 8 9 9 7 8 8 7 6 4 3 2 1 2 5 4 5 5 4 1 5 9 7 6 7 8 12 15 16 16 16 16 17 18 19 18 17 16 15 15 15 15 16 16 17 17 17 18 18 18 17 17 17 19 19 18 18 17 17 17 15 14 14 12 11 10 10 9 8 8 8 7 6 6 5 5 5 6 5 4
4 6 8 9 8 10 10 9 10 9 8 7 3 1 2 2 2 2 3 4 5 1 4 3 6 1 3 8 9 8 9 13 14 15 17 16 15 17 18 18 20 20 18 17 16 16 16 15 16 17 17 18 18 18 18 18 18 17 17 19 19 18 18 17 17 17 15 14 14 13 11 9 9 8 8 8 8 7 6 6 5 4 4 5 6 5
3 7 9 10 10 10 8 8 9 9 10 5 3 1 3 3 2 2 4 5 4 2 2 3 5 4 2 5 9 10 11 14 15 15 16 17 17 19 19 19 20 20 20 18 17 17 16 16 16 17 18 18 17 17 18 18 18 18 18 19 19 18 18 17 17 17 16 14 13 13 12 10 9 8 7 8 7 6 6 6 5 4 4 5 6 6
4 7 8 8 9 8 7 6 5 9 11 4 2 1 3 2 2 2 4 5 3 4 4 4 4 4 2 4 8 11 11 13 17 16 16 20 21 20 20 21 20 20 20 19 18 18 17 17 17 17 17 17 17 17 18 18 18 18 19 19 19 18 17 17 17 16 16 15 13 14 13 10 9 8 6 6 6 6 6 5 5 5 4 4 5 6
2 2 3 6 7 5 4 4 4 9 10 4 3 4 2 2 3 3 4 4 3 6 6 2 6 4 2 5 7 9 9 11 14 14 16 21 22 20 21 22 21 21 21 20 18 18 18 18 17 17 17 16 16 17 18 18 17 18 18 18 19 18 17 17 17 17 16 15 14 14 13 11 10 8 7 7 6 6 6 5 5 5 5 4 4 4
2 2 2 6 7 4 2 2 5 10 7 5 7 7 5 5 4 3 4 3 5 6 3 2 6 5 3 4 7 8 9 11 11 12 16 21 22 22 22 22 22 22 22 21 20 19 18 18 17 17 17 16 16 16 17 18 18 18 18 18 18 18 17 17 17 16 16 16 15 14 14 12 10 8 8 7 7 6 5 5 5 5 5 5 5 4
5 6 4 5 7 5 4 4 5 8 7 7 8 7 5 5 4 5 5 4 7 5 1 1 5 6 4 2 6 9 10 10 11 12 16 21 23 23 23 23 23 22 22 22 21 20 19 19 19 18 17 17 16 16 17 18 18 18 18 18 19 18 18 17 17 16 15 15 15 15 14 13 11 10 8 7 7 6 5 5 5 5 5 5 5 5
5 4 3 4 5 8 9 6 4 7 8 9 8 6 6 5 4 6 6 6 6 2 3 3 4 5 6 4 5 9 10 10 12 14 17 21 25 25 24 25 24 23 23 23 22 21 21 20 20 20 19 18 17 17 17 18 19 18 18 19 19 19 19 18 17 16 15 16 16 16 15 14 12 12 10 8 7 7 6 5 5 5 5 5 5 5
4 5 5 4 5 9 10 6 4 6 7 8 8 7 7 7 6 8 7 6 6 2 4 4 4 4 5 4 4 7 11 13 17 20 21 21 24 26 25 26 25 24 24 24 23 23 21 21 21 21 20 19 19 18 18 18 19 18 18 19 20 20 20 20 19 17 16 16 16 16 15 14 13 12 10 9 7 7 7 6 6 5 5 5 5 5
2 4 5 1 2 7 10 7 5 4 5 9 8 7 9 7 6 6 5 5 5 3 3 5 3 3 1 2 2 2 7 12 16 21 23 21 22 24 25 26 27 26 25 25 24 23 23 22 21 22 21 21 20 20 18 19 19 19 19 20 21 21 20 21 20 19 18 16 16 16 16 15 14 12 11 10 9 9 8 7 7 7 6 6 5 5
5 1 5 2 1 4 9 6 4 5 5 6 6 7 9 7 6 6 7 5 3 4 4 4 3 3 0 4 4 2 4 10 13 16 20 20 21 22 23 25 27 27 26 25 24 23 23 23 22 22 22 21 21 21 20 19 20 20 20 20 21 21 21 21 21 20 19 17 16 16 15 15 15 14 12 12 11 10 9 8 8 8 7 7 6 6
4 1 5 1 2 4 8 6 5 5 3 1 5 7 4 3 5 4 6 6 4 5 5 3 4 3 1 4 7 6 5 9 12 13 16 19 20 21 22 23 26 27 26 25 25 24 24 23 23 23 23 22 21 21 21 21 21 22 21 21 21 21 21 20 20 20 19 18 17 16 16 16 15 15 13 12 11 9 9 10 10 8 8 8 7 6
3 1 4 1 1 2 5 6 5 2 2 1 4 3 3 1 4 1 3 5 5 5 3 3 5 4 2 1 4 7 8 9 11 12 14 16 18 20 21 22 24 26 26 25 24 23 23 23 23 23 23 23 22 21 22 23 23 22 21 21 22 22 21 20 20 19 18 17 17 17 16 16 16 15 13 12 11 10 10 10 10 9 9 8 8 7
4 5 3 2 2 4 3 6 5 4 2 4 3 2 1 4 5 4 4 6 5 5 4 4 6 4 3 1 1 5 7 8 11 12 12 14 18 19 20 20 23 26 26 24 23 23 24 23 23 24 24 24 23 22 23 23 23 22 21 21 21 21 21 20 19 19 19 18 17 16 16 16 17 16 14 13 12 11 10 10 10 10 10 9 8 9
3 6 1 2 1 3 4 5 4 5 3 5 5 4 3 2 3 3 3 5 6 5 4 5 5 3 2 3 4 2 2 4 8 11 11 15 20 22 21 19 23 26 24 24 26 27 27 25 23 25 26 26 26 25 23 23 23 22 21 21 21 21 21 21 20 19 20 19 17 17 16 17 17 17 16 15 14 12 11 11 11 10 10 10 9 9
2 4 4 3 3 3 3 2 3 4 6 4 4 5 4 2 2 3 4 5 6 6 4 5 6 2 2 4 6 6 4 4 6 8 10 14 19 25 26 22 21 22 21 25 30 30 29 27 24 24 27 28 27 26 24 24 23 22 20 21 21 21 21 21 20 20 20 19 19 18 17 17 17 17 16 15 15 14 12 12 12 11 10 10 10 10
2 3 5 4 3 5 0 4 7 3 6 6 5 5 6 4 3 4 5 6 6 7 5 5 6 2 3 3 5 6 5 3 4 6 8 12 15 21 27 25 21 20 21 26 31 29 26 26 24 23 26 27 26 26 26 25 24 23 22 21 21 21 21 21 21 22 22 20 19 19 18 18 17 17 16 16 15 15 14 14 13 12 12 11 11 11
3 4 6 6 3 1 4 3 7 2 4 5 4 4 6 3 3 5 4 4 5 6 5 3 4 3 3 3 4 5 5 5 3 4 6 8 12 17 23 25 22 21 24 29 30 27 23 24 24 24 25 27 26 26 27 26 25 25 24 24 23 22 22 21 21 22 23 21 21 20 19 18 17 17 17 16 16 15 14 14 13 13 13 11 11 11
2 3 5 5 2 2 4 3 4 2 2 5 3 2 4 3 3 3 2 4 5 5 4 2 3 2 2 3 3 4 4 4 2 2 3 4 7 12 19 21 18 18 23 28 27 24 21 22 23 24 26 28 28 28 28 27 27 27 27 26 26 24 22 22 22 22 22 21 21 20 19 19 18 17 17 16 16 15 15 14 13 13 13 12 11 10
2 2 4 5 5 5 6 6 3 2 5 5 2 2 3 2 2 3 2 4 6 5 5 5 4 1 1 2 2 3 4 3 2 1 4 6 7 9 14 17 16 15 18 21 21 20 20 20 22 25 28 30 31 30 29 28 28 28 27 27 26 25 24 23 22 21 20 19 20 20 19 19 19 18 17 17 16 15 14 14 13 13 12 12 11 10
3 3 3 5 6 7 5 4 3 2 4 4 2 2 3 2 3 4 3 5 6 4 3 4 3 1 1 1 2 3 3 3 3 2 4 7 8 8 9 12 14 15 16 17 17 17 18 19 21 25 29 31 32 31 30 29 28 28 27 27 26 26 26 24 22 21 19 18 19 21 21 20 19 18 18 18 17 16 14 13 13 13 12 11 11 11
3 3 4 5 7 6 4 3 2 1 4 5 2 4 5 3 3 4 3 3 4 3 2 3 3 3 2 1 2 3 3 2 2 1 3 5 7 8 8 8 10 13 13 14 15 15 17 20 21 23 26 29 31 31 30 30 29 29 28 27 27 28 27 25 24 22 20 19 19 21 22 21 20 18 17 17 18 18 16 14 13 12 12 11 11 11
4 4 4 4 6 6 5 3 2 2 6 6 2 7 7 2 3 4 1 1 2 4 3 1 3 4 2 2 3 3 3 3 2 1 1 2 3 5 7 8 9 10 11 12 14 15 17 21 24 25 27 29 29 29 29 29 30 30 30 29 29 29 29 28 26 24 21 20 20 22 23 22 21 19 18 18 18 18 18 16 14 12 12 12 12 12
6 5 3 4 6 5 4 4 2 3 5 3 2 6 7 5 6 4 0 2 2 3 3 2 4 4 3 3 4 3 2 3 4 3 1 2 3 3 6 7 7 8 9 11 13 14 16 19 22 25 27 29 29 29 28 28 29 31 31 30 30 30 30 29 28 26 24 22 22 22 22 22 22 21 20 19 18 18 18 17 16 14 13 12 12 11
6 4 2 5 8 6 5 4 4 5 6 5 5 6 6 7 6 5 3 2 2 2 3 3 4 3 2 3 3 3 2 3 5 6 5 2 3 4 4 5 6 5 6 8 9 11 12 14 16 20 23 25 28 28 28 28 29 30 30 30 30 30 30 30 29 28 27 26 25 24 23 22 22 22 21 20 18 17 17 17 16 14 13 13 12 12
4 2 1 4 8 7 6 5 5 6 7 8 8 7 7 8 6 6 7 4 3 3 2 4 5 3 1 1 1 1 3 5 7 9 7 6 4 2 1 2 4 4 3 4 6 7 8 9 10 12 15 18 20 22 24 25 27 28 28 28 29 29 28 28 27 27 26 27 27 26 24 23 22 22 22 20 17 15 15 16 16 15 15 15 13 14
5 3 2 5 7 5 5 5 6 6 7 10 10 8 9 9 7 7 6 4 5 6 5 5 4 2 3 2 1 1 3 5 6 7 6 5 5 4 2 2 3 2 2 3 4 5 6 7 8 8 9 11 12 14 18 21 23 25 26 28 28 27 23 22 24 26 26 26 27 27 26 24 22 21 20 18 17 15 14 15 15 17 17 16 14 15
5 5 3 4 6 4 3 3 5 7 8 8 6 5 6 7 7 9 8 6 6 6 5 5 2 3 3 3 3 2 2 4 5 5 5 7 7 6 5 5 5 5 2 3 4 4 5 6 7 7 7 7 8 9 12 15 18 20 23 25 25 24 22 20 23 26 26 26 27 26 26 25 24 22 20 18 16 16 17 17 17 17 17 15 13 15
4 6 4 3 5 4 1 1 6 7 7 3 1 2 5 5 6 9 10 9 7 4 4 4 2 3 3 1 1 1 4 5 4 5 5 7 7 6 5 5 8 10 8 5 4 4 5 6 6 6 5 5 6 7 8 9 11 13 16 17 18 19 20 20 21 22 23 23 23 24 24 23 24 24 24 21 19 17 19 20 19 18 16 15 15 16
5 5 3 2 5 4 0 3 8 6 3 0 2 1 2 3 6 8 10 12 10 7 7 6 1 3 4 2 3 5 6 6 6 6 7 7 6 5 3 2 7 12 10 7 7 5 5 6 6 6 6 5 5 6 6 7 8 8 9 9 10 13 15 16 17 18 19 20 21 23 23 21 22 24 24 23 23 20 19 20 19 19 18 17 17 17
5 5 3 3 4 4 3 5 6 3 2 2 2 1 2 4 5 7 9 10 8 7 7 5 2 3 4 4 5 6 5 5 7 9 8 5 6 6 6 6 10 14 13 8 4 5 5 5 4 4 4 5 5 5 5 7 7 6 6 7 7 10 12 14 17 18 19 21 23 24 24 22 22 23 21 22 24 23 21 20 19 18 18 18 18 19
6 5 4 4 4 4 6 6 5 5 5 5 3 2 2 4 4 4 7 7 5 5 7 5 3 4 5 5 7 7 5 5 5 7 7 5 5 7 7 7 11 16 15 10 4 3 4 5 6 5 4 3 3 3 3 4 5 5 6 7 8 10 13 14 16 17 19 22 24 25 25 25 26 24 20 18 20 21 21 20 18 17 17 15 15 15
6 5 4 5 4 4 6 6 6 7 6 3 2 2 1 3 3 3 6 6 4 5 8 6 4 5 6 6 7 8 6 5 4 5 5 4 5 7 7 7 11 15 14 9 6 4 5 5 7 7 7 6 4 3 3 3 4 4 5 5 6 8 11 13 15 18 20 22 24 25 25 25 26 24 21 18 18 18 17 17 16 15 14 13 12 12
6 5 4 6 5 4 6 6 6 6 4 1 3 3 2 1 0 2 6 4 1 2 6 8 7 7 7 6 7 8 6 4 3 4 4 3 3 5 5 7 13 17 15 12 10 9 8 7 7 8 9 9 7 5 4 4 3 3 4 3 3 5 7 11 15 19 21 23 24 24 24 23 23 23 21 19 18 17 16 17 16 14 13 13 12 11
7 5 6 8 7 6 6 7 6 5 2 4 5 3 4 3 1 5 6 2 3 3 3 6 7 7 7 6 7 7 5 2 4 6 5 3 3 4 4 7 13 18 18 16 15 14 12 11 11 13 14 14 12 10 7 5 5 6 6 5 4 3 1 4 9 13 16 20 22 22 20 20 21 20 19 18 16 15 16 17 15 12 11 11 11 11
6 6 6 7 8 7 7 7 7 4 1 6 6 5 6 4 3 5 3 2 3 1 2 4 6 7 8 7 6 4 2 3 8 10 8 7 8 9 8 8 13 19 20 18 17 17 17 16 17 20 21 20 17 15 13 12 13 14 14 13 13 13 13 10 6 3 7 14 17 16 15 15 14 14 14 13 12 13 13 13 13 12 10 10 10 10
5 5 6 6 7 6 5 6 7 4 2 5 7 8 6 3 3 2 1 1 1 0 1 3 5 6 7 7 4 2 5 7 10 14 15 13 12 13 12 10 14 20 23 21 19 19 20 20 21 23 25 24 23 22 20 20 23 25 23 22 22 21 19 17 17 17 18 21 22 21 20 18 15 14 13 11 11 12 12 12 12 10 9 8 9 8
3 4 6 5 5 5 5 6 7 4 2 7 8 7 5 5 2 3 2 1 2 1 1 2 3 5 7 6 5 7 10 10 11 16 18 16 15 15 14 13 14 18 23 25 23 22 23 24 24 24 25 25 25 25 23 23 26 27 27 27 26 23 21 20 21 22 23 23 24 24 23 21 19 18 16 14 13 12 12 12 11 9 8 7 6 6
3 4 5 3 2 5 6 4 3 2 3 8 7 2 1 2 3 5 6 4 3 1 1 1 3 5 6 6 8 12 14 13 13 15 17 16 16 18 17 16 15 17 21 25 25 24 25 26 25 24 24 24 25 27 26 26 28 30 29 28 25 22 22 22 22 23 24 24 24 23 22 22 21 20 18 16 14 13 13 12 12 11 10 9 9 8
2 1 4 2 2 4 5 2 2 2 3 5 6 3 2 3 4 5 6 5 3 1 1 2 4 6 7 8 11 14 15 15 14 15 16 16 17 18 19 18 17 18 21 24 26 26 26 27 27 26 26 26 26 28 29 29 30 32 30 27 24 23 22 22 23 24 26 25 25 24 22 22 22 20 18 17 15 14 14 13 12 12 11 9 8 7
1 1 2 2 1 3 4 1 1 1 2 2 4 4 3 4 3 3 4 4 2 0 2 4 6 8 9 10 13 15 16 17 16 15 16 17 17 20 21 20 20 20 21 23 25 26 27 28 28 28 28 28 29 30 32 31 31 33 31 28 26 25 25 25 25 26 26 26 25 24 23 23 23 21 19 17 14 12 11 10 10 11 10 8 6 5
4 5 5 3 2 2 3 2 2 1 1 1 2 3 2 3 3 2 3 2 2 2 4 5 6 7 10 12 14 16 16 16 16 17 18 18 18 20 21 21 21 21 21 22 23 23 24 26 27 27 28 29 28 28 29 29 29 28 27 25 24 25 26 26 26 25 25 24 23 22 22 22 21 20 19 18 16 13 11 11 10 10 10 9 6 5
5 7 6 5 5 3 1 2 3 1 1 2 2 2 2 3 3 3 3 4 5 5 5 6 6 7 10 13 16 18 18 16 15 14 16 17 17 18 20 21 23 22 21 21 22 23 25 27 28 29 30 30 28 25 25 26 25 23 22 22 22 23 25 25 25 24 24 24 23 22 21 20 20 19 18 17 16 15 14 13 11 10 10 9 8 6
6 7 5 4 5 4 1 3 4 3 3 4 2 1 2 3 4 4 4 5 6 7 7 7 7 9 12 14 17 20 21 21 18 15 14 15 14 15 17 20 22 24 23 23 24 25 26 27 28 29 30 29 28 27 26 25 23 22 21 21 22 23 24 24 24 23 21 21 22 22 21 20 20 19 18 17 16 15 15 13 12 11 10 9 8 7
5 5 3 3 5 4 1 5 7 3 1 5 5 3 4 5 5 6 6 6 8 9 9 10 12 13 15 18 22 23 24 25 23 21 20 19 16 16 17 18 20 23 25 25 26 26 27 27 28 29 29 27 26 26 26 24 22 20 18 18 19 21 22 22 22 21 20 19 19 20 20 19 18 18 17 17 16 15 15 14 13 12 11 9 8 8
6 5 4 4 4 3 2 7 8 3 5 7 6 5 5 5 4 5 5 5 8 10 10 12 15 18 21 24 28 30 29 28 27 26 27 25 21 19 20 22 24 25 26 27 28 28 28 27 27 27 27 26 25 25 24 23 22 20 19 18 18 19 20 20 19 18 18 18 18 18 18 17 17 17 16 15 15 14 13 13 12 11 10 9 8 7
Wind_Direction
197 204 209 216 211 182 182 220 255 270 278 292 302 302 310 307 69 82 81 100 224 250 211 215 228 220 209 192 198 206 200 203 202 193 190 186 180 180 183 181 176 174 171 166 163 164 167 168 169 169 169 172 171 172 177 175 172 171 170 168 165 163 165 166 167 165 162 163 161 160 161 159 158 157 154 152 147 145 149 155 151 135 135 139 134 134
205 224 208 191 146 103 168 204 233 253 262 267 284 295 292 279 43 63 56 95 203 260 169 183 229 221 207 194 194 206 206 204 204 196 191 188 183 181 184 182 177 175 170 166 166 167 168 170 172 171 172 175 174 176 176 174 175 174 173 173 170 170 169 168 171 169 166 169 166 163 163 162 164 160 155 156 154 151 158 161 151 142 148 146 138 136
209 228 188 159 178 187 203 223 236 250 260 260 266 275 275 254 72 80 99 116 178 258 142 146 234 229 195 185 192 209 217 213 207 203 196 190 186 183 184 183 179 178 173 170 172 171 171 173 175 175 176 178 178 178 176 175 178 175 175 179 177 176 174 171 174 172 169 171 167 165 165 161 162 161 158 164 166 157 159 165 154 151 156 147 138 137
208 219 168 163 189 209 217 225 243 251 249 249 249 259 273 323 313 300 132 132 189 258 298 187 243 242 186 180 197 215 225 228 220 218 207 195 193 188 185 184 182 182 178 175 177 175 174 175 177 179 178 179 180 180 179 177 179 178 180 184 181 180 179 176 176 173 172 173 170 170 171 166 165 171 170 171 174 168 165 170 164 162 161 150 151 156
234 126 123 172 198 221 230 224 238 250 245 241 240 249 267 294 309 316 62 143 211 226 241 244 245 229 191 190 202 211 221 240 239 236 221 202 201 195 189 189 186 186 183 181 182 179 178 178 181 183 180 180 181 183 183 181 180 181 184 187 184 183 182 182 180 175 174 176 173 174 177 173 171 173 173 171 175 174 167 166 171 174 170 162 167 171
247 149 152 204 207 218 234 232 233 242 254 248 236 237 257 284 300 287 246 247 250 213 185 227 266 213 181 196 202 189 197 213 214 221 220 206 202 199 195 193 190 188 188 188 186 182 182 181 183 184 183 183 183 185 186 184 183 182 185 189 188 186 185 187 187 181 177 177 178 182 181 177 176 172 174 173 173 175 166 162 172 177 176 173 174 181
233 166 191 223 217 217 227 236 235 236 251 248 217 184 236 246 244 239 259 266 282 318 131 236 281 302 172 201 202 178 189 210 208 208 213 209 204 200 198 197 192 190 191 192 190 188 186 184 184 186 186 186 185 186 186 186 187 184 185 191 192 192 190 192 193 189 184 183 184 187 184 183 183 178 179 177 169 170 166 163 168 169 182 182 174 190
186 177 203 222 224 225 223 232 226 222 245 251 87 95 224 216 214 229 266 271 293 325 164 217 263 282 250 201 189 178 189 210 212 209 208 209 210 205 201 200 196 193 193 193 192 192 191 188 187 188 189 189 186 186 185 186 189 188 189 194 197 198 196 197 199 196 191 189 190 190 188 188 188 185 185 178 170 171 171 169 168 163 187 196 182 192
161 197 204 211 222 229 226 237 221 214 238 254 82 213 219 208 208 217 265 276 299 296 262 197 200 261 278 157 172 181 193 213 215 212 207 206 208 206 204 203 199 196 196 195 195 195 193 192 191 189 190 190 186 186 186 186 188 190 193 197 199 201 200 200 201 199 195 194 194 193 192 194 191 188 189 185 184 188 182 181 187 181 186 203 198 197
122 198 226 226 228 235 230 238 235 232 237 207 171 210 190 183 194 216 261 276 277 276 285 181 179 252 295 151 167 182 200 217 214 211 210 206 204 202 204 205 201 199 199 199 197 196 196 194 193 191 189 188 187 186 187 186 186 190 195 200 201 200 200 202 201 200 199 198 197 195 195 198 196 193 197 200 201 199 194 193 204 207 198 200 206 211
194 158 252 247 249 286 306 238 233 243 238 177 189 208 204 202 206 226 241 263 265 260 300 127 182 242 290 160 169 186 204 208 200 205 208 204 202 201 202 203 202 200 199 200 199 198 199 196 194 193 189 187 186 185 186 186 186 188 194 201 202 200 200 202 202 202 202 202 202 200 199 200 201 204 208 210 211 207 205 205 211 223 217 208 203 210
193 194 205 222 244 262 253 227 213 220 208 190 205 212 214 217 218 236 224 226 254 250 84 108 191 226 261 198 182 197 204 197 189 200 205 198 197 200 201 202 203 201 199 200 199 199 200 198 195 193 191 189 187 186 186 186 187 188 193 201 203 203 202 202 203 204 203 205 206 205 206 207 208 210 212 215 220 217 215 217 222 230 227 220 213 212
172 189 176 177 213 229 228 215 187 195 199 206 213 206 214 220 214 238 234 222 243 239 124 165 194 224 253 258 221 207 202 193 186 198 210 201 195 197 199 201 202 201 199 199 199 200 200 199 196 193 192 191 189 189 188 187 189 189 193 200 203 203 203 201 202 205 205 206 209 208 209 212 213 212 213 218 224 224 222 221 226 234 233 229 222 219
160 149 161 182 187 209 226 228 200 196 204 216 215 207 218 226 226 235 237 234 242 220 139 171 204 242 256 252 232 220 211 197 185 194 210 210 199 196 197 199 201 201 200 199 199 200 200 200 197 194 193 193 192 193 192 190 190 192 194 199 203 204 203 201 201 205 208 209 210 210 210 212 215 215 217 222 223 224 226 222 223 228 229 231 228 224
270 151 147 202 156 193 224 245 258 237 215 221 220 219 227 236 248 250 249 246 253 256 170 163 199 253 267 117 117 248 214 191 181 188 203 214 212 203 199 199 201 201 200 200 200 200 201 201 199 197 195 196 196 196 194 193 193 194 196 200 202 204 204 203 203 204 208 210 211 212 213 213 216 217 220 225 225 222 223 224 228 228 221 221 224 225
279 87 92 26 347 215 228 230 256 263 231 212 221 232 234 246 258 259 268 263 263 282 243 190 225 273 63 133 147 146 176 170 169 180 194 211 219 216 209 203 201 201 200 200 201 201 200 201 200 199 199 199 199 198 197 196 196 196 198 202 203 203 205 205 205 206 208 210 213 214 214 214 216 218 218 224 228 226 226 228 229 230 226 222 220 224
262 117 95 133 188 215 244 224 205 248 263 169 223 231 222 275 276 260 272 262 235 262 262 230 255 262 202 173 168 162 165 166 169 179 191 203 215 220 217 207 201 200 201 200 201 201 200 201 201 201 202 202 200 200 200 199 201 203 202 203 204 203 205 206 205 207 209 211 214 215 214 214 217 219 219 222 228 228 231 233 229 225 226 227 224 224
309 277 104 126 211 146 250 234 178 186 321 247 230 229 115 241 264 210 260 261 239 251 268 268 271 271 278 221 167 179 190 184 180 183 189 196 208 218 217 209 201 199 201 201 200 199 198 199 201 202 204 205 202 201 204 206 209 211 209 205 206 203 203 206 205 206 209 210 213 215 216 216 217 219 219 221 225 225 227 231 227 220 219 222 222 218
318 276 122 102 308 83 142 213 168 133 234 251 259 282 221 236 232 195 230 267 259 257 267 268 269 273 285 315 151 197 204 201 192 185 188 193 199 212 217 212 205 201 200 198 196 199 202 201 202 206 207 207 206 203 208 214 215 215 213 207 206 206 204 204 204 206 210 211 213 215 218 219 217 217 217 218 221 221 221 222 221 219 218 218 219 223
306 279 229 150 202 115 146 217 209 153 193 262 274 257 231 256 272 220 229 264 263 261 270 281 275 266 310 349 351 325 263 236 211 189 192 196 194 203 214 212 207 203 196 193 199 208 212 209 205 209 213 214 214 211 210 216 215 213 213 209 207 207 206 205 204 206 210 211 212 215 217 219 219 217 216 217 219 218 218 217 215 217 219 217 218 224
260 267 271 197 173 202 193 279 281 173 171 214 235 237 220 189 252 251 236 248 263 266 259 273 277 261 63 0 336 325 319 285 243 207 200 201 195 198 206 210 206 198 190 197 208 215 218 217 210 210 217 219 220 218 214 216 217 211 209 211 211 208 206 207 207 208 211 211 211 214 215 218 219 218 217 218 220 219 217 216 214 214 216 217 217 217
293 274 276 262 238 242 201 358 307 230 184 202 193 217 233 205 201 233 237 245 263 269 264 278 287 313 45 1 328 321 324 316 266 229 206 205 200 195 200 207 205 195 194 207 215 215 215 216 210 207 215 217 217 218 217 217 218 214 208 211 214 210 207 208 207 210 213 213 213 215 215 215 216 218 217 216 220 220 217 217 216 215 215 215 219 220
317 283 277 272 270 298 58 357 293 249 186 222 207 221 239 231 233 235 239 260 261 251 253 287 294 312 13 358 343 338 342 348 305 238 211 210 203 192 194 202 203 198 203 212 214 211 208 210 208 206 213 216 215 218 222 221 220 219 217 216 217 214 212 211 209 213 219 218 219 220 219 216 214 216 217 215 218 220 218 218 219 219 218 216 220 222
263 276 278 268 231 133 126 190 270 322 248 229 205 246 256 256 257 239 250 287 272 243 236 265 267 265 11 11 356 347 350 357 339 206 177 173 176 180 186 191 194 197 205 210 209 206 205 207 206 206 212 218 220 223 226 226 226 227 226 224 224 222 220 218 215 220 225 224 224 225 223 219 216 215 216 216 217 219 219 218 218 220 219 216 218 219
283 295 288 269 238 207 195 194 205 263 270 246 159 159 240 238 198 181 189 259 255 250 261 273 268 239 32 20 9 355 6 23 28 109 130 123 130 158 179 188 196 203 203 202 202 202 204 205 206 210 217 223 226 228 229 230 231 232 231 230 230 228 226 225 224 227 229 226 225 225 223 222 219 217 216 216 216 217 219 219 218 219 218 217 218 216
306 297 294 282 262 245 242 247 234 228 252 243 163 169 208 200 182 178 192 230 234 249 268 264 275 315 334 344 27 9 11 39 35 47 101 110 116 136 164 183 199 209 205 198 198 201 203 205 208 214 221 226 230 232 232 233 235 235 234 234 233 233 232 229 228 230 229 227 226 224 222 221 219 218 219 220 219 217 217 218 218 218 218 218 219 217
295 277 275 285 282 285 296 276 269 328 251 227 230 251 227 195 206 228 245 229 227 271 274 233 266 285 274 301 26 12 357 30 41 25 84 101 118 138 158 181 197 205 203 197 197 200 204 209 212 214 220 225 228 231 233 234 237 238 238 236 236 236 236 233 230 229 228 227 226 225 222 219 218 218 219 222 225 222 217 216 216 218 219 219 220 221
275 256 237 250 268 287 308 290 140 154 237 225 244 267 253 228 236 243 264 135 199 249 249 216 277 275 278 334 20 31 353 8 37 22 77 99 119 147 164 186 201 199 193 191 192 195 205 215 218 219 222 225 227 229 231 233 235 238 239 239 238 238 238 237 234 230 227 226 226 226 223 219 218 219 219 222 227 227 222 217 214 216 218 218 219 221
280 270 224 249 261 259 281 286 201 192 235 218 200 262 275 288 280 281 49 131 184 255 263 304 293 277 295 333 8 39 0 349 24 26 52 135 153 167 161 166 180 185 184 187 190 195 205 215 222 225 226 228 229 229 229 231 233 237 240 241 240 240 240 240 238 234 230 227 226 226 225 223 224 225 227 229 231 231 227 221 217 217 217 218 219 221
272 278 222 262 273 255 243 264 260 250 256 243 225 238 259 273 283 298 280 217 229 280 287 295 282 270 296 324 348 29 39 42 50 41 22 46 137 164 161 148 148 156 169 178 185 193 200 205 216 223 225 227 230 231 232 232 235 238 241 242 242 242 242 242 241 239 234 231 229 229 229 230 231 232 234 236 235 234 231 225 220 220 221 222 220 218
230 268 236 260 269 254 232 244 259 262 268 264 253 247 254 263 263 257 257 259 264 269 283 281 262 229 143 351 318 40 84 80 78 70 42 22 43 100 150 143 131 130 151 171 176 182 184 187 198 209 217 222 226 230 233 235 238 240 242 243 243 244 243 242 243 242 239 236 235 234 233 233 234 235 235 234 232 231 231 227 222 219 221 224 224 224
217 240 226 246 262 250 220 239 262 273 276 267 260 257 256 261 266 264 270 296 298 295 293 273 257 182 129 135 194 163 109 86 73 73 77 68 53 51 71 114 113 115 175 189 182 177 172 175 181 186 199 211 217 223 229 234 239 242 243 244 245 244 243 241 244 248 246 242 239 238 238 236 234 234 234 232 228 224 224 225 222 221 224 226 227 230
232 251 242 238 261 258 200 246 278 280 272 257 256 295 292 277 278 280 276 276 283 293 292 288 324 79 130 166 191 199 100 76 47 25 57 89 85 69 61 74 100 111 136 174 179 184 176 172 178 179 185 196 201 210 220 229 236 240 243 245 246 246 244 243 248 252 250 247 244 241 239 236 235 239 243 241 234 226 222 221 222 223 223 223 223 229
223 252 263 236 258 265 161 272 272 264 265 254 143 353 324 307 287 276 273 276 283 286 283 299 359 99 127 142 176 123 67 69 55 19 39 78 96 91 61 60 101 109 99 95 119 154 166 161 165 174 179 184 192 201 209 215 223 230 235 238 240 242 242 244 249 250 248 246 244 240 237 236 239 243 245 243 240 234 224 220 223 223 220 219 222 228
224 236 246 224 252 271 278 251 254 250 264 2 112 109 319 308 291 284 281 278 274 266 268 283 308 130 128 107 106 101 90 84 71 44 41 61 87 109 106 93 113 114 104 81 66 79 125 144 150 157 162 168 182 196 200 203 210 214 220 223 226 233 238 240 241 240 240 241 239 238 239 241 243 244 242 240 239 239 231 223 223 225 226 228 231 231
254 245 237 230 249 267 258 240 250 291 326 266 233 223 254 264 274 281 278 269 258 249 254 265 254 153 146 148 142 127 122 117 85 55 43 62 96 120 141 143 124 117 118 112 68 48 69 98 110 123 145 163 181 189 188 192 196 198 206 211 214 224 231 235 236 237 238 238 236 236 237 241 245 244 241 238 236 236 235 228 221 224 231 235 234 232
261 263 250 235 226 253 269 256 263 296 286 247 225 212 249 275 293 298 289 287 284 258 243 241 223 172 156 157 158 153 158 159 115 63 39 42 84 105 126 137 125 119 121 127 119 54 45 62 74 81 96 122 158 180 180 184 183 184 195 201 205 214 223 230 235 238 240 241 242 242 238 238 242 242 238 236 235 234 234 229 221 219 225 227 226 229
243 252 254 246 218 232 271 270 262 271 265 216 156 100 6 309 322 312 286 283 281 246 225 214 208 192 173 168 174 178 186 188 154 86 58 45 65 87 103 115 117 117 118 118 107 77 59 74 91 100 109 121 139 156 171 182 183 183 183 184 196 213 224 232 235 237 240 241 244 244 239 233 233 234 231 231 235 233 225 218 212 206 205 210 215 219
224 227 240 252 238 225 254 263 259 267 276 132 122 114 104 101 16 287 264 259 338 281 219 199 198 201 194 189 188 193 205 202 154 106 89 78 67 77 95 107 110 111 107 100 94 88 81 85 94 102 110 114 118 125 145 160 159 155 155 163 194 222 237 242 242 245 246 243 241 242 238 231 228 227 223 224 228 224 209 200 201 198 196 206 215 218
219 220 222 240 247 238 245 260 267 269 255 123 135 140 119 119 231 258 248 240 30 4 214 200 198 191 192 202 200 207 240 245 134 128 124 120 102 88 90 104 108 108 104 96 90 89 89 93 100 99 94 94 95 96 104 121 129 131 135 141 142 125 132 245 249 255 249 236 234 236 229 220 216 212 210 213 213 206 196 193 196 198 198 208 219 225
220 225 229 245 254 244 240 256 270 275 119 124 149 150 127 138 239 258 266 3 20 44 145 199 205 180 176 197 213 228 310 65 111 123 124 117 103 90 83 88 99 103 102 98 95 98 101 100 98 94 88 85 87 89 98 112 116 115 116 114 106 93 84 84 89 107 168 179 185 187 179 176 181 185 189 192 188 187 191 193 193 196 200 210 221 227
225 223 230 245 254 253 255 263 264 268 99 121 144 143 149 200 254 263 275 311 321 53 121 193 206 186 183 200 209 151 109 109 119 123 120 110 99 93 87 83 89 97 102 105 106 109 109 102 96 94 95 96 96 95 99 107 108 106 104 101 96 93 93 94 95 99 112 125 131 133 135 139 146 152 155 156 161 170 178 178 179 185 194 203 213 217
232 226 228 233 245 256 257 253 259 275 113 140 150 148 181 232 329 13 317 341 47 40 232 203 201 193 190 193 172 135 127 128 129 123 118 111 105 102 98 90 88 94 102 107 108 109 109 105 98 97 100 103 105 104 104 105 104 101 97 95 94 96 99 100 100 102 106 111 116 120 123 125 128 131 132 136 143 148 147 145 149 157 165 166 164 164
207 238 256 242 212 250 262 249 259 344 112 163 183 178 207 274 357 346 317 336 22 339 246 203 196 190 180 170 155 143 137 138 135 124 117 114 111 108 106 102 98 97 100 103 105 106 108 106 102 102 102 103 104 105 104 103 101 97 95 96 100 102 103 104 103 102 102 104 108 112 115 117 118 118 118 120 125 126 122 119 120 126 130 124 116 115
205 269 303 302 205 252 293 340 73 74 117 179 223 272 339 330 337 331 311 311 328 290 185 185 190 181 171 163 154 148 144 144 138 126 122 121 117 113 111 109 107 103 102 104 105 106 107 106 105 104 103 102 102 101 99 99 98 96 95 97 100 101 101 103 102 98 96 95 96 100 104 108 111 113 114 115 117 118 113 106 105 109 112 110 108 104
235 246 278 290 244 252 273 272 130 135 138 183 235 261 289 295 308 325 306 296 306 153 175 186 182 172 171 169 159 152 150 147 140 131 127 124 119 116 114 112 109 107 106 106 105 105 104 103 101 100 99 100 100 100 99 98 96 95 95 95 95 96 97 97 97 95 94 93 93 95 97 98 100 103 106 107 108 110 110 106 106 111 110 103 94 86
200 216 225 235 239 248 242 181 147 182 199 199 237 244 257 266 265 282 288 258 220 199 182 181 180 169 169 171 164 155 149 143 136 131 128 123 119 119 118 116 114 111 110 109 107 106 105 102 100 100 100 99 97 98 98 98 95 93 93 94 97 98 97 95 95 95 95 96 96 97 98 99 101 103 104 104 102 103 105 105 105 111 114 111 103 93
181 199 219 235 233 240 273 101 115 166 203 212 246 242 226 235 234 234 233 209 197 187 171 171 174 163 165 171 163 149 137 126 118 114 116 117 116 117 119 120 119 116 113 112 111 109 107 104 102 101 101 101 100 101 100 98 97 97 98 101 102 101 99 97 95 94 95 95 96 96 96 97 99 100 102 103 104 105 106 107 106 107 112 119 124 128
139 177 206 233 226 230 238 160 174 195 182 172 199 233 198 198 198 191 189 184 175 165 156 156 154 152 161 165 151 134 123 119 116 108 100 99 104 109 113 117 118 117 115 113 112 109 106 105 103 102 102 102 104 104 102 100 99 99 101 103 104 102 101 99 97 95 94 92 93 93 94 94 95 96 96 97 98 99 101 103 105 105 103 106 109 110
171 200 204 216 230 254 272 169 180 199 139 146 158 165 171 178 180 177 175 169 163 161 157 153 145 142 149 150 141 130 121 118 121 120 113 109 111 112 111 112 113 115 115 114 112 109 107 105 105 105 105 105 106 106 106 105 104 104 104 105 104 102 99 96 95 94 94 93 92 92 91 90 90 89 89 88 87 87 87 87 89 91 91 92 93 90
211 221 198 219 263 315 69 140 161 143 86 112 132 143 157 168 172 174 174 168 164 161 154 149 146 142 138 136 135 134 130 125 124 124 123 124 125 122 119 118 115 114 114 114 114 112 109 106 105 104 104 106 106 106 105 105 106 108 108 107 105 102 99 96 92 89 89 90 89 87 85 83 82 81 82 82 80 78 77 74 72 71 71 70 67 63